FW8685 Weather Reports


time (UTC)temp
C
wind
direction
speed
KPH
gust
KPH
rain 1hr
cm
rain 24hr
cm
rain mn
cm
humidity
%
barometer
mb
20260901014547 31 105 9.7 14.5 0.00 0.00 0.00 43 1010.8
20260901014024 31 92 9.7 14.5 0.00 0.00 0.00 43 1010.8
20260901013525 32 100 8.0 14.5 0.00 0.00 0.00 42 1010.6
20260901013100 32 96 8.0 14.5 0.00 0.00 0.00 42 1010.6
20260901012525 32 107 9.7 14.5 0.00 0.00 0.00 41 1010.6
20260901012025 32 105 9.7 14.5 0.00 0.00 0.00 40 1010.6
20260901011545 32 93 9.7 12.9 0.00 0.00 0.00 40 1010.6
20260901011025 33 103 8.0 12.9 0.00 0.00 0.00 39 1010.6
20260901010526 33 103 8.0 14.5 0.00 0.00 0.00 39 1010.5
20260901010046 33 101 9.7 14.5 0.00 0.00 0.00 38 1010.4
20260901005526 33 95 9.7 16.1 0.00 0.00 0.00 38 1010.4
20260901005025 33 103 9.7 16.1 0.00 0.00 0.00 37 1010.4
20260901004549 34 100 8.0 14.5 0.00 0.00 0.00 37 1010.4
20260901004024 35 102 9.7 16.1 0.00 0.00 0.00 37 1010.3
20260901003525 35 98 9.7 16.1 0.00 0.00 0.00 36 1010.3
20260901003044 35 98 11.3 16.1 0.00 0.00 0.00 35 1010.2
20260901002525 35 103 9.7 17.7 0.00 0.00 0.00 35 1010.3
20260901002024 36 103 11.3 17.7 0.00 0.00 0.00 34 1010.3
20260901001546 36 99 11.3 17.7 0.00 0.00 0.00 33 1010.2
20260901001026 36 103 11.3 19.3 0.00 0.00 0.00 33 1010.2
20260901000528 36 113 12.9 19.3 0.00 0.00 0.00 32 1010.2
20260901000045 36 96 12.9 20.9 0.00 0.00 0.00 32 1010.3
20260831235525 36 104 14.5 20.9 0.00 0.00 0.00 31 1010.3
20260831235028 37 94 11.3 19.3 0.00 0.00 0.00 31 1010.3
20260831234550 37 104 12.9 27.4 0.00 0.00 0.00 30 1010.3
20260831234024 37 109 16.1 27.4 0.00 0.00 0.00 30 1010.2
20260831233526 37 102 16.1 24.1 0.00 0.00 0.00 30 1010.4
20260831233053 37 100 14.5 29.0 0.00 0.00 0.00 30 1010.3
20260831232527 37 93 17.7 29.0 0.00 0.00 0.00 30 1010.3
20260831232025 37 94 16.1 29.0 0.00 0.00 0.00 30 1010.3
20260831231544 37 98 12.9 27.4 0.00 0.00 0.00 30 1010.3
20260831231030 38 103 14.5 27.4 0.00 0.00 0.00 30 1010.4
20260831230525 38 113 17.7 29.0 0.00 0.00 0.00 30 1010.3
20260831230045 38 113 20.9 30.6 0.00 0.00 0.00 30 1010.4
20260831225525 38 113 17.7 30.6 0.00 0.00 0.00 30 1010.4
20260831225030 38 124 20.9 32.2 0.00 0.00 0.00 30 1010.5
20260831224546 38 110 20.9 32.2 0.00 0.00 0.00 30 1010.4
20260831224028 38 97 20.9 32.2 0.00 0.00 0.00 30 1010.4
20260831223526 38 112 22.5 32.2 0.00 0.00 0.00 29 1010.5
20260831223053 38 113 19.3 33.8 0.00 0.00 0.00 29 1010.4
20260831222525 38 95 20.9 33.8 0.00 0.00 0.00 29 1010.5
20260831222026 38 103 17.7 32.2 0.00 0.00 0.00 29 1010.6
20260831221544 39 112 17.7 27.4 0.00 0.00 0.00 29 1010.7
20260831221024 38 92 17.7 29.0 0.00 0.00 0.00 28 1010.6
20260831220522 38 113 19.3 29.0 0.00 0.00 0.00 28 1010.6
20260831220051 39 84 16.1 29.0 0.00 0.00 0.00 28 1010.6
20260831215527 39 88 16.1 22.5 0.00 0.00 0.00 28 1010.6
20260831215025 39 97 14.5 20.9 0.00 0.00 0.00 27 1010.6
20260831214558 39 117 12.9 29.0 0.00 0.00 0.00 27 1010.7
20260831214024 39 146 16.1 29.0 0.00 0.00 0.00 26 1010.7
20260831213525 39 128 17.7 35.4 0.00 0.00 0.00 27 1010.7
20260831213043 39 105 16.1 35.4 0.00 0.00 0.00 27 1010.7
20260831212818 40 107 22.5 33.8 0.00 0.00 0.00 27 1010.7
20260831212028 40 103 14.5 29.0 0.00 0.00 0.00 27 1010.8
20260831211545 40 144 17.7 29.0 0.00 0.00 0.00 25 1010.8
20260831211024 40 120 16.1 37.0 0.00 0.00 0.00 26 1010.8
20260831210525 40 115 20.9 37.0 0.00 0.00 0.00 26 1010.8
20260831210046 40 110 20.9 38.6 0.00 0.00 0.00 27 1010.8
20260831205525 40 97 27.4 38.6 0.00 0.00 0.00 26 1010.8
20260831205024 40 127 19.3 35.4 0.00 0.00 0.00 27 1010.8
20260831204549 39 110 20.9 35.4 0.00 0.00 0.00 28 1010.8
20260831204028 39 95 24.1 35.4 0.00 0.00 0.00 27 1010.9
20260831203523 39 111 19.3 35.4 0.00 0.00 0.00 27 1011.0
20260831203042 40 105 22.5 35.4 0.00 0.00 0.00 28 1011.0
20260831202527 40 130 19.3 33.8 0.00 0.00 0.00 27 1011.2
20260831202026 40 95 19.3 33.8 0.00 0.00 0.00 27 1011.2
20260831201551 40 134 12.9 32.2 0.00 0.00 0.00 27 1011.2
20260831201026 40 99 20.9 32.2 0.00 0.00 0.00 27 1011.3
20260831200525 40 114 19.3 30.6 0.00 0.00 0.00 28 1011.3
20260831200046 40 118 17.7 40.2 0.00 0.00 0.00 27 1011.3
20260831195524 40 110 17.7 40.2 0.00 0.00 0.00 27 1011.4
20260831195025 40 108 22.5 40.2 0.00 0.00 0.00 28 1011.5
20260831194546 40 117 20.9 33.8 0.00 0.00 0.00 28 1011.5
20260831194024 40 128 17.7 37.0 0.00 0.00 0.00 28 1011.5
20260831193526 40 114 22.5 37.0 0.00 0.00 0.00 29 1011.8
20260831193118 39 128 17.7 37.0 0.00 0.00 0.00 30 1011.7
20260831192524 39 157 19.3 37.0 0.00 0.00 0.00 29 1011.8
20260831192027 39 134 9.7 29.0 0.00 0.00 0.00 30 1011.8
20260831191545 39 118 17.7 37.0 0.00 0.00 0.00 29 1011.8
20260831191024 39 101 22.5 37.0 0.00 0.00 0.00 30 1011.9
20260831190527 39 170 11.3 33.8 0.00 0.00 0.00 30 1011.8
20260831190048 39 133 19.3 35.4 0.00 0.00 0.00 30 1012.0
20260831185525 39 122 17.7 35.4 0.00 0.00 0.00 29 1011.9
20260831185023 40 130 17.7 35.4 0.00 0.00 0.00 30 1012.0
20260831184550 39 96 19.3 35.4 0.00 0.00 0.00 31 1011.9
20260831184025 39 141 20.9 35.4 0.00 0.00 0.00 31 1012.0
20260831183525 38 165 17.7 30.6 0.00 0.00 0.00 31 1011.9
20260831183053 39 140 14.5 37.0 0.00 0.00 0.00 31 1012.0
20260831182527 39 144 17.7 37.0 0.00 0.00 0.00 31 1012.1
20260831182025 38 125 16.1 32.2 0.00 0.00 0.00 31 1012.1
20260831181557 39 107 16.1 29.0 0.00 0.00 0.00 33 1012.2
20260831181024 38 123 16.1 35.4 0.00 0.00 0.00 34 1012.3
20260831180525 38 101 17.7 37.0 0.00 0.00 0.00 35 1012.4
20260831180046 38 123 17.7 37.0 0.00 0.00 0.00 34 1012.4
20260831175524 37 183 14.5 33.8 0.00 0.00 0.00 35 1012.5
20260831175024 38 160 16.1 33.8 0.00 0.00 0.00 34 1012.7
20260831174548 38 135 19.3 30.6 0.00 0.00 0.00 35 1012.7
20260831174024 37 155 14.5 33.8 0.00 0.00 0.00 36 1012.8
20260831173525 37 163 14.5 35.4 0.00 0.00 0.00 36 1012.9
20260831173047 37 113 17.7 35.4 0.00 0.00 0.00 35 1012.9
20260831172524 37 123 17.7 32.2 0.00 0.00 0.00 37 1013.0
20260831172025 36 108 12.9 32.2 0.00 0.00 0.00 38 1013.0
20260831171544 36 121 17.7 32.2 0.00 0.00 0.00 37 1013.1
20260831171025 36 123 14.5 29.0 0.00 0.00 0.00 37 1013.0
20260831170524 36 150 20.9 29.0 0.00 0.00 0.00 37 1013.2
20260831170043 36 140 12.9 27.4 0.00 0.00 0.00 38 1013.1
20260831165525 36 113 14.5 32.2 0.00 0.00 0.00 39 1013.2
20260831165025 36 170 17.7 32.2 0.00 0.00 0.00 38 1013.2
20260831164605 35 138 17.7 32.2 0.00 0.00 0.00 38 1013.2
20260831164024 35 132 17.7 33.8 0.00 0.00 0.00 39 1013.2
20260831163525 35 111 19.3 33.8 0.00 0.00 0.00 39 1013.2
20260831163048 35 123 14.5 30.6 0.00 0.00 0.00 40 1013.3
20260831162523 35 139 20.9 30.6 0.00 0.00 0.00 40 1013.3
20260831162024 35 113 14.5 29.0 0.00 0.00 0.00 40 1013.3
20260831161600 35 165 12.9 29.0 0.00 0.00 0.00 40 1013.4
20260831161023 35 138 17.7 29.0 0.00 0.00 0.00 41 1013.4
20260831160526 35 126 17.7 27.4 0.00 0.00 0.00 41 1013.5
20260831160056 34 121 16.1 27.4 0.00 0.00 0.00 41 1013.5
20260831155524 34 130 17.7 27.4 0.00 0.00 0.00 42 1013.4
20260831155026 34 119 12.9 27.4 0.00 0.00 0.00 42 1013.5
20260831154613 33 126 12.9 29.0 0.00 0.00 0.00 43 1013.4
20260831154029 33 116 17.7 29.0 0.00 0.00 0.00 42 1013.4
20260831153525 33 140 12.9 29.0 0.00 0.00 0.00 43 1013.3
20260831153046 33 123 14.5 29.0 0.00 0.00 0.00 43 1013.3
20260831152528 33 167 16.1 27.4 0.00 0.00 0.00 43 1013.4
20260831152025 33 154 9.7 24.1 0.00 0.00 0.00 44 1013.4
20260831151546 33 132 12.9 24.1 0.00 0.00 0.00 44 1013.3
20260831151025 32 128 12.9 24.1 0.00 0.00 0.00 45 1013.4
20260831150524 32 132 11.3 27.4 0.00 0.00 0.00 45 1013.4
20260831150050 32 145 11.3 27.4 0.00 0.00 0.00 46 1013.4
20260831145524 32 131 12.9 25.7 0.00 0.00 0.00 46 1013.3
20260831145024 31 164 9.7 25.7 0.00 0.00 0.00 47 1013.3
20260831144544 31 143 12.9 24.1 0.00 0.00 0.00 48 1013.4
20260831144024 31 139 14.5 24.1 0.00 0.00 0.00 48 1013.4
20260831143523 30 127 9.7 19.3 0.00 0.00 0.00 50 1013.4
20260831143044 30 125 11.3 17.7 0.00 0.00 0.00 50 1013.4
20260831142527 30 149 9.7 17.7 0.00 0.00 0.00 51 1013.4
20260831142025 29 161 9.7 17.7 0.00 0.00 0.00 52 1013.4
20260831141550 29 150 8.0 19.3 0.00 0.00 0.00 53 1013.4
20260831141024 28 115 12.9 19.3 0.00 0.00 0.00 54 1013.2
20260831140525 28 120 11.3 19.3 0.00 0.00 0.00 55 1013.3
20260831140045 28 134 11.3 20.9 0.00 0.00 0.00 56 1013.3
20260831135525 27 136 14.5 20.9 0.00 0.00 0.00 57 1013.3
20260831135028 27 125 9.7 16.1 0.00 0.00 0.00 58 1013.3
20260831134548 26 117 11.3 20.9 0.00 0.00 0.00 60 1013.4
20260831134025 26 120 11.3 25.7 0.00 0.00 0.00 61 1013.3
20260831133522 26 107 16.1 25.7 0.00 0.00 0.00 61 1013.3
20260831133047 25 112 16.1 20.9 0.00 0.00 0.00 62 1013.2
20260831132524 25 103 11.3 19.3 0.00 0.00 0.00 63 1013.1
20260831132025 25 111 12.9 19.3 0.00 0.00 0.00 64 1013.2
20260831131557 24 105 9.7 16.1 0.00 0.00 0.00 65 1013.2
20260831131025 24 119 9.7 16.1 0.00 0.00 0.00 66 1013.2
20260831130525 23 124 11.3 17.7 0.00 0.00 0.00 67 1013.0
20260831130047 23 117 11.3 17.7 0.00 0.00 0.00 69 1013.1
20260831125527 23 111 9.7 16.1 0.00 0.00 0.00 70 1013.0
20260831125025 22 111 11.3 16.1 0.00 0.00 0.00 72 1012.9
20260831124545 22 111 11.3 16.1 0.00 0.00 0.00 73 1012.8
20260831124023 22 98 9.7 14.5 0.00 0.00 0.00 74 1012.7
20260831123526 21 114 6.4 11.3 0.00 0.00 0.00 74 1012.7
20260831123046 21 107 4.8 11.3 0.00 0.00 0.00 74 1012.7
20260831122529 21 97 6.4 9.7 0.00 0.00 0.00 73 1012.8
20260831122024 21 116 4.8 9.7 0.00 0.00 0.00 73 1012.8
20260831121550 21 125 4.8 9.7 0.00 0.00 0.00 73 1012.8
20260831121029 21 107 4.8 6.4 0.00 0.00 0.00 73 1012.8
20260831120528 21 104 3.2 6.4 0.00 0.00 0.00 73 1012.9
20260831120048 21 103 3.2 6.4 0.00 0.00 0.00 73 1012.8
20260831115526 22 98 3.2 9.7 0.00 0.00 0.00 73 1012.7
20260831115024 22 93 4.8 9.7 0.00 0.00 0.00 73 1012.7
20260831114547 22 92 1.6 6.4 0.00 0.00 0.00 72 1012.6
20260831114025 22 0 0.0 0.0 0.00 0.00 0.00 71 1012.7
20260831113524 22 0 0.0 0.0 0.00 0.00 0.00 71 1012.5
20260831113049 22 0 0.0 1.6 0.00 0.00 0.00 70 1012.5
20260831112526 22 0 0.0 3.2 0.00 0.00 0.00 70 1012.3
20260831112024 22 109 0.0 4.8 0.00 0.00 0.00 70 1012.4
20260831111551 22 109 1.6 4.8 0.00 0.00 0.00 70 1012.3
20260831111024 22 109 1.6 4.8 0.00 0.00 0.00 69 1012.3
20260831110524 22 109 3.2 4.8 0.00 0.00 0.00 69 1012.2
20260831110046 22 109 1.6 6.4 0.00 0.00 0.00 68 1012.2
20260831105525 22 109 3.2 6.4 0.00 0.00 0.00 68 1012.0
20260831105026 22 110 3.2 6.4 0.00 0.00 0.00 67 1012.0
20260831104551 22 119 3.2 6.4 0.00 0.00 0.00 67 1012.0
20260831104026 23 113 4.8 9.7 0.00 0.00 0.00 67 1011.8
20260831103524 23 123 3.2 9.7 0.00 0.00 0.00 66 1011.8
20260831103050 23 105 4.8 9.7 0.00 0.00 0.00 66 1011.7
20260831102524 23 111 4.8 6.4 0.00 0.00 0.00 65 1011.7
20260831102025 23 109 3.2 6.4 0.00 0.00 0.00 65 1011.8
20260831101546 23 105 3.2 6.4 0.00 0.00 0.00 65 1011.7
20260831101023 23 107 3.2 6.4 0.00 0.00 0.00 65 1011.7
20260831100525 23 108 3.2 6.4 0.00 0.00 0.00 64 1011.7
20260831100100 23 106 4.8 6.4 0.00 0.00 0.00 64 1011.7
20260831095525 24 109 4.8 6.4 0.00 0.00 0.00 63 1011.4
20260831095026 24 115 4.8 9.7 0.00 0.00 0.00 63 1011.3
20260831094548 24 116 4.8 9.7 0.00 0.00 0.00 62 1011.3
20260831094024 24 117 4.8 9.7 0.00 0.00 0.00 62 1011.5
20260831093525 25 108 6.4 9.7 0.00 0.00 0.00 62 1011.3
20260831093056 25 112 4.8 9.7 0.00 0.00 0.00 61 1011.2
20260831092523 25 115 4.8 8.0 0.00 0.00 0.00 61 1011.2
20260831092022 25 145 4.8 11.3 0.00 0.00 0.00 61 1011.3
20260831091541 25 138 4.8 11.3 0.00 0.00 0.00 60 1011.1
20260831091029 25 122 3.2 11.3 0.00 0.00 0.00 60 1011.0
20260831090523 25 126 4.8 12.9 0.00 0.00 0.00 60 1011.0
20260831090056 25 125 4.8 12.9 0.00 0.00 0.00 60 1011.2
20260831085525 25 126 6.4 12.9 0.00 0.00 0.00 59 1011.0
20260831085024 25 110 6.4 12.9 0.00 0.00 0.00 59 1010.8
20260831084545 25 130 4.8 14.5 0.00 0.00 0.00 59 1010.8
20260831084025 25 122 8.0 14.5 0.00 0.00 0.00 59 1010.9
20260831083525 26 135 8.0 14.5 0.00 0.00 0.00 59 1010.7
20260831083102 26 149 8.0 14.5 0.00 0.00 0.00 58 1010.7
20260831082525 26 108 8.0 16.1 0.00 0.00 0.00 58 1010.5
20260831082025 26 127 8.0 16.1 0.00 0.00 0.00 58 1010.7
20260831081555 26 134 8.0 14.5 0.00 0.00 0.00 58 1010.7
20260831081027 26 121 9.7 14.5 0.00 0.00 0.00 57 1010.6
20260831080525 26 130 9.7 19.3 0.00 0.00 0.00 57 1010.6
20260831080120 26 114 9.7 19.3 0.00 0.00 0.00 57 1010.5
20260831075528 26 111 9.7 19.3 0.00 0.00 0.00 56 1010.7
20260831075026 26 120 9.7 16.1 0.00 0.00 0.00 56 1010.7
20260831074547 27 113 9.7 16.1 0.00 0.00 0.00 56 1010.8
20260831074024 27 121 9.7 14.5 0.00 0.00 0.00 55 1010.8
20260831073524 27 110 9.7 19.3 0.00 0.00 0.00 55 1010.8
20260831073045 27 103 9.7 19.3 0.00 0.00 0.00 54 1010.8
20260831072527 27 125 11.3 19.3 0.00 0.00 0.00 54 1010.9
20260831072025 27 117 11.3 19.3 0.00 0.00 0.00 54 1010.8
20260831071548 27 137 8.0 19.3 0.00 0.00 0.00 54 1011.0
20260831071025 27 140 8.0 17.7 0.00 0.00 0.00 53 1010.9
20260831070524 27 144 8.0 17.7 0.00 0.00 0.00 53 1010.8
20260831070048 27 124 9.7 20.9 0.00 0.00 0.00 53 1010.9
20260831065526 28 123 11.3 20.9 0.00 0.00 0.00 52 1010.9
20260831065025 28 141 11.3 22.5 0.00 0.00 0.00 52 1010.9
20260831064544 28 113 11.3 22.5 0.00 0.00 0.00 52 1010.8
20260831064025 28 126 14.5 24.1 0.00 0.00 0.00 52 1010.8
20260831063525 28 118 14.5 24.1 0.00 0.00 0.00 52 1010.7
20260831063106 28 134 12.9 25.7 0.00 0.00 0.00 52 1010.6
20260831062524 28 141 14.5 27.4 0.00 0.00 0.00 51 1010.4
20260831062024 28 134 16.1 27.4 0.00 0.00 0.00 51 1010.3
20260831061547 28 113 14.5 25.7 0.00 0.00 0.00 51 1010.4
20260831061027 28 119 16.1 32.2 0.00 0.00 0.00 51 1010.4
20260831060524 28 113 16.1 32.2 0.00 0.00 0.00 50 1010.3
20260831060048 28 119 17.7 30.6 0.00 0.00 0.00 50 1010.3
20260831055524 28 126 16.1 30.6 0.00 0.00 0.00 50 1010.2
20260831055025 28 111 17.7 30.6 0.00 0.00 0.00 50 1010.2
20260831054543 28 128 16.1 32.2 0.00 0.00 0.00 50 1010.0
20260831054025 28 109 14.5 32.2 0.00 0.00 0.00 50 1009.8
20260831053525 28 140 12.9 27.4 0.00 0.00 0.00 50 1009.7
20260831053122 28 122 17.7 25.7 0.00 0.00 0.00 50 1009.6
20260831052524 28 113 14.5 25.7 0.00 0.00 0.00 50 1009.6
20260831052027 28 109 16.1 27.4 0.00 0.00 0.00 50 1009.6
20260831051545 28 113 17.7 27.4 0.00 0.00 0.00 50 1009.6
20260831051023 28 100 16.1 27.4 0.00 0.00 0.00 50 1009.6
20260831050523 28 110 16.1 25.7 0.00 0.00 0.00 49 1009.5
20260831050051 28 115 16.1 24.1 0.00 0.00 0.00 49 1009.5
20260831045525 28 107 17.7 24.1 0.00 0.00 0.00 49 1009.3
20260831045028 28 111 17.7 24.1 0.00 0.00 0.00 49 1009.3
20260831044636 28 114 17.7 24.1 0.00 0.00 0.00 49 1009.3
20260831044026 28 112 17.7 24.1 0.00 0.00 0.00 49 1009.3
20260831043524 28 104 16.1 25.7 0.00 0.00 0.00 49 1009.4
20260831043045 28 105 16.1 27.4 0.00 0.00 0.00 49 1009.3
20260831042524 28 103 16.1 27.4 0.00 0.00 0.00 49 1009.4
20260831042024 28 101 16.1 29.0 0.00 0.00 0.00 48 1009.5
20260831041557 29 94 19.3 29.0 0.00 0.00 0.00 48 1009.5
20260831041024 29 105 17.7 24.1 0.00 0.00 0.00 48 1009.6
20260831040525 29 115 16.1 24.1 0.00 0.00 0.00 48 1009.6
20260831040050 29 97 14.5 22.5 0.00 0.00 0.00 48 1009.6
20260831035524 29 99 14.5 22.5 0.00 0.00 0.00 48 1009.6
20260831035024 29 109 14.5 20.9 0.00 0.00 0.00 48 1009.6
20260831034545 29 119 12.9 19.3 0.00 0.00 0.00 48 1009.6
20260831034027 30 101 14.5 19.3 0.00 0.00 0.00 47 1009.5
20260831033525 30 104 12.9 19.3 0.00 0.00 0.00 47 1009.6
20260831033054 30 102 12.9 19.3 0.00 0.00 0.00 47 1009.6
20260831032525 30 108 11.3 20.9 0.00 0.00 0.00 47 1009.6
20260831032029 30 98 12.9 20.9 0.00 0.00 0.00 47 1009.6
20260831031549 30 108 14.5 22.5 0.00 0.00 0.00 47 1009.5
20260831031024 30 109 14.5 25.7 0.00 0.00 0.00 47 1009.6
20260831030527 30 103 14.5 25.7 0.00 0.00 0.00 46 1009.5
20260831030049 30 98 16.1 22.5 0.00 0.00 0.00 46 1009.4
20260831025525 30 96 14.5 19.3 0.00 0.00 0.00 46 1009.5
20260831025025 30 101 12.9 20.9 0.00 0.00 0.00 46 1009.4
20260831024545 31 105 12.9 22.5 0.00 0.00 0.00 45 1009.4
20260831024024 31 100 14.5 22.5 0.00 0.00 0.00 45 1009.4
20260831023522 31 108 14.5 20.9 0.00 0.00 0.00 45 1009.3
20260831023041 31 100 12.9 22.5 0.00 0.00 0.00 45 1009.3
20260831022525 31 108 14.5 22.5 0.00 0.00 0.00 45 1009.3
20260831022027 31 101 12.9 20.9 0.00 0.00 0.00 45 1009.2
20260831021547 31 109 14.5 20.9 0.00 0.00 0.00 44 1009.1
20260831021025 31 109 14.5 20.9 0.00 0.00 0.00 44 1009.1
20260831020524 31 104 14.5 20.9 0.00 0.00 0.00 44 1008.8
20260831020045 31 126 11.3 19.3 0.00 0.00 0.00 44 1008.8
20260831015525 31 113 12.9 20.9 0.00 0.00 0.00 43 1008.7
20260831015021 32 103 11.3 20.9 0.00 0.00 0.00 42 1008.6